Вернуться в каталог

STARLINK-35417

АктивенСвязьVLEO
NORAD 66335·PAYLOAD·🇺🇸 United States

Запущен Nov 6, 2025 с Cape Canaveral Space Force Station

Loading…

Ближайшие Пролёты (ближайшие 24 часа)

TLE

СвежийSource: CelesTrak SupGP

Эпоха: Sep 14, 2026, 23:02 UTC

1 66335C 25253S   26257.96020833  .00008860  00000+0  32081-3 0  2578
2 66335  43.0007 223.6482 0001315 263.3230 343.9259 15.27582804    13

Отслеживайте STARLINK-35417 в реальном времени с AllMySat

Download on the App Store